Wichita, KS

3:22 PM CST on December 13, 2017 (GMT -0600)
Wichita Eisenhower National Airport

Weather History for KICT - June, 2012

Change the Weather History Date:

Thursday, June 28, 2012

  Actual Average Record
Temperature  
Mean Temperature 88 °F 79 °F  
Max Temperature 106 °F 91 °F 106 °F (1990)
Min Temperature 69 °F 68 °F 54 °F (1985)
Degree Days  
Heating Degree Days 0 0  
Month to date heating degree days 10 3  
Since 1 June heating degree days 10 3  
Since 1 July heating degree days 3627 4591  
Cooling Degree Days 23 14  
Month to date cooling degree days 414 299  
Year to date cooling degree days 775 435  
Since 1 June cooling degree days 414 299  
Growing Degree Days 38 (Base 50)    
Moisture  
Dew Point 60 °F    
Average Humidity 48    
Maximum Humidity 78    
Minimum Humidity 17    
Precipitation  
Precipitation 0.00 in 0.14 in 1.26 in (1922)
Month to date precipitation 2.55 4.92  
Year to date precipitation 17.52 16.78  
Snow  
Snow 0.00 in 0.00 in 0.00 in (2007)
Month to date snowfall 0.0 0.0  
Since 1 June snowfall 0.0 0.0  
Since 1 July snowfall 3.0 14.9  
Snow Depth 0.00 in    
Sea Level Pressure  
Sea Level Pressure 29.88 in    
Wind  
Wind Speed 12 mph (South)    
Max Wind Speed 22 mph    
Max Gust Speed 30 mph    
Visibility 10 miles    
Events      
T = Trace of Precipitation, MM = Missing Value Source: NWS Daily Summary

Daily Weather History Graph

Daily Weather History Graph

Search for Another Location

Airport or City:

Trip Planner

Search our weather history database for the weather conditions in past years. The results will help you decide how hot, cold, wet, or windy it might be!

Date:

Astronomy

Jun. 28, 2012 Rise Set
Actual Time 6:10 AM CDT 8:55 PM CDT
Civil Twilight 5:39 AM CDT 9:26 PM CDT
Nautical Twilight 5:00 AM CDT 10:05 PM CDT
Astronomical Twilight 4:16 AM CDT 10:49 PM CDT
Moon 3:34 PM CDT (6/28) 1:40 AM CDT (6/28)
Length of Visible Light 15h 46m
Length of Day
14h 44m
Waxing Gibbous, 67% of the Moon is Illuminated
Jun 28
Waxing Gibbous
Jul 3
Full
Jul 10
Last Quarter
Jul 18
New
Jul 26
First Quarter

Hourly Weather History & Observations

Time (CDT) Temp. Heat Index Dew Point Humidity Pressure Visibility Wind Dir Wind Speed Gust Speed Precip Events Conditions
12:53 AM 84.0 °F 85.8 °F 64.9 °F 53% 29.86 in 10.0 mi South 12.7 mph - N/A   Clear
1:53 AM 80.1 °F 81.7 °F 64.0 °F 58% 29.87 in 10.0 mi South 12.7 mph - N/A   Clear
2:53 AM 79.0 °F - 64.0 °F 60% 29.87 in 10.0 mi South 13.8 mph - N/A   Clear
3:53 AM 77.0 °F - 64.0 °F 64% 29.87 in 10.0 mi South 11.5 mph - N/A   Clear
4:53 AM 73.0 °F - 64.0 °F 73% 29.89 in 10.0 mi South 9.2 mph - N/A   Clear
5:53 AM 71.1 °F - 63.0 °F 75% 29.91 in 10.0 mi South 5.8 mph - N/A   Clear
6:53 AM 70.0 °F - 63.0 °F 78% 29.93 in 10.0 mi South 4.6 mph - N/A   Clear
7:53 AM 75.0 °F - 62.1 °F 64% 29.94 in 10.0 mi South 10.4 mph 18.4 mph N/A   Clear
8:53 AM 82.0 °F 83.0 °F 62.1 °F 51% 29.94 in 10.0 mi South 8.1 mph - N/A   Clear
9:53 AM 87.1 °F 87.5 °F 62.1 °F 43% 29.93 in 10.0 mi South 13.8 mph - N/A   Clear
10:53 AM 93.0 °F 94.2 °F 63.0 °F 37% 29.92 in 10.0 mi SSW 13.8 mph - N/A   Clear
11:53 AM 97.0 °F 99.9 °F 64.9 °F 35% 29.91 in 10.0 mi SSW 15.0 mph - N/A   Clear
12:53 PM 100.9 °F 103.3 °F 63.0 °F 29% 29.91 in 10.0 mi South 13.8 mph 25.3 mph N/A   Clear
1:53 PM 102.9 °F 102.4 °F 57.0 °F 22% 29.89 in 10.0 mi SW 11.5 mph 21.9 mph N/A   Clear
2:53 PM 105.1 °F 103.3 °F 54.0 °F 18% 29.88 in 10.0 mi South 12.7 mph - N/A   Clear
3:53 PM 106.0 °F 103.9 °F 53.1 °F 17% 29.86 in 10.0 mi South 16.1 mph - N/A   Clear
4:53 PM 105.1 °F - 51.1 °F 16% 29.85 in 10.0 mi South 15.0 mph 24.2 mph N/A   Clear
5:53 PM 104.0 °F - 50.0 °F 16% 29.84 in 10.0 mi South 16.1 mph 27.6 mph N/A   Clear
6:53 PM 102.0 °F - 51.1 °F 18% 29.83 in 10.0 mi South 17.3 mph - N/A   Clear
7:53 PM 98.1 °F 96.4 °F 55.0 °F 24% 29.84 in 10.0 mi South 15.0 mph - N/A   Partly Cloudy
8:53 PM 93.0 °F - 52.0 °F 25% 29.85 in 10.0 mi South 12.7 mph - N/A   Clear
9:53 PM 89.1 °F 88.2 °F 59.0 °F 36% 29.86 in 10.0 mi SSE 12.7 mph - N/A   Partly Cloudy
10:53 PM 88.0 °F 87.6 °F 60.1 °F 39% 29.88 in 10.0 mi South 10.4 mph - N/A   Partly Cloudy
11:53 PM 86.0 °F 86.1 °F 61.0 °F 43% 29.89 in 10.0 mi South 12.7 mph - N/A   Partly Cloudy